| time (UTC) | temp F | wind direction | speed knots | gust knots | rain 1hr in | rain 24hr in | rain mn in | humidity % | barometer mb |
| 20260905003502 | 66 | 220 | 1.7 | 0.0 | 0.00 | 0.00 | 0.00 | 60 | 1014.0 |
| 20260905000501 | 66 | 0.9 | 0.0 | 0.00 | 0.00 | 0.00 | 64 | 1014.0 | |
| 20260904233503 | 68 | 220 | 2.6 | 0.0 | 0.00 | 0.00 | 0.00 | 60 | 1014.0 |
| 20260904230503 | 68 | 0.9 | 0.0 | 0.00 | 0.00 | 0.00 | 64 | 1014.0 | |
| 20260904223502 | 68 | 0.9 | 0.0 | 0.00 | 0.00 | 0.00 | 64 | 1014.0 | |
| 20260904220502 | 68 | 0 | 0.0 | 0.0 | 0.00 | 0.00 | 0.00 | 64 | 1014.0 |
| 20260904213502 | 68 | 0 | 0.0 | 0.0 | 0.00 | 0.00 | 0.00 | 64 | 1015.0 |
| 20260904210503 | 68 | 0 | 0.0 | 0.0 | 0.00 | 0.00 | 0.00 | 64 | 1014.0 |
| 20260904203502 | 70 | 240 | 1.7 | 0.0 | 0.00 | 0.00 | 0.00 | 60 | 1014.0 |
| 20260904200502 | 72 | 230 | 0.9 | 0.0 | 0.00 | 0.00 | 0.00 | 57 | 1014.0 |
| 20260904193502 | 72 | 240 | 1.7 | 0.0 | 0.00 | 0.00 | 0.00 | 53 | 1014.0 |
| 20260904190502 | 73 | 210 | 2.6 | 0.0 | 0.00 | 0.00 | 0.00 | 50 | 1015.0 |
| 20260904183502 | 73 | 220 | 1.7 | 0.0 | 0.00 | 0.00 | 0.00 | 50 | 1015.0 |
| 20260904180502 | 75 | 0 | 0.0 | 0.0 | 0.00 | 0.00 | 0.00 | 47 | 1015.0 |
| 20260904173503 | 75 | 150 | 0.9 | 0.0 | 0.00 | 0.00 | 0.00 | 47 | 1014.0 |
| 20260904170503 | 77 | 320 | 0.9 | 0.0 | 0.00 | 0.00 | 0.00 | 42 | 1014.0 |
| 20260904163502 | 77 | 330 | 4.3 | 0.0 | 0.00 | 0.00 | 0.00 | 44 | 1014.0 |
| 20260904160502 | 77 | 330 | 7.0 | 0.0 | 0.00 | 0.00 | 0.00 | 44 | 1014.0 |
| 20260904153502 | 79 | 300 | 2.6 | 0.0 | 0.00 | 0.00 | 0.00 | 39 | 1014.0 |
| 20260904150502 | 81 | 300 | 4.3 | 0.0 | 0.00 | 0.00 | 0.00 | 37 | 1014.0 |
| 20260904143502 | 82 | 280 | 2.6 | 0.0 | 0.00 | 0.00 | 0.00 | 32 | 1014.0 |
| 20260904140502 | 82 | 320 | 5.2 | 0.0 | 0.00 | 0.00 | 0.00 | 35 | 1015.0 |
| 20260904133502 | 82 | 170 | 5.2 | 0.0 | 0.00 | 0.00 | 0.00 | 32 | 1014.0 |
| 20260904130502 | 82 | 7.0 | 0.0 | 0.00 | 0.00 | 0.00 | 32 | 1015.0 | |
| 20260904123502 | 82 | 270 | 6.1 | 0.0 | 0.00 | 0.00 | 0.00 | 30 | 1015.0 |
| 20260904120502 | 82 | 240 | 5.2 | 0.0 | 0.00 | 0.00 | 0.00 | 32 | 1015.0 |
| 20260904113503 | 81 | 5.2 | 0.0 | 0.00 | 0.00 | 0.00 | 37 | 1015.0 | |
| 20260904110502 | 81 | 280 | 4.3 | 0.0 | 0.00 | 0.00 | 0.00 | 37 | 1016.0 |
| 20260904103502 | 81 | 200 | 5.2 | 0.0 | 0.00 | 0.00 | 0.00 | 39 | 1016.0 |
| 20260904100502 | 79 | 210 | 2.6 | 0.0 | 0.00 | 0.00 | 0.00 | 42 | 1016.0 |
| 20260904093502 | 77 | 4.3 | 0.0 | 0.00 | 0.00 | 0.00 | 44 | 1016.0 | |
| 20260904090502 | 77 | 4.3 | 0.0 | 0.00 | 0.00 | 0.00 | 42 | 1017.0 | |
| 20260904083502 | 75 | 230 | 4.3 | 0.0 | 0.00 | 0.00 | 0.00 | 47 | 1017.0 |
| 20260904080502 | 75 | 1.7 | 0.0 | 0.00 | 0.00 | 0.00 | 50 | 1017.0 | |
| 20260904073504 | 72 | 2.6 | 0.0 | 0.00 | 0.00 | 0.00 | 57 | 1017.0 | |
| 20260904070503 | 70 | 240 | 4.3 | 0.0 | 0.00 | 0.00 | 0.00 | 57 | 1017.0 |
| 20260904063502 | 68 | 210 | 2.6 | 0.0 | 0.00 | 0.00 | 0.00 | 60 | 1017.0 |
| 20260904060502 | 64 | 250 | 2.6 | 0.0 | 0.00 | 0.00 | 0.00 | 73 | 1017.0 |
| 20260904053503 | 63 | 220 | 2.6 | 0.0 | 0.00 | 0.00 | 0.00 | ||
| 20260904050502 | 63 | 1.7 | 0.0 | 0.00 | 0.00 | 0.00 | 77 | 1017.0 | |
| 20260904043502 | 59 | 190 | 2.6 | 0.0 | 0.00 | 0.00 | 0.00 | 82 | 1017.0 |
| 20260904040504 | 59 | 230 | 2.6 | 0.0 | 0.00 | 0.00 | 0.00 | 82 | 1017.0 |
| 20260904033502 | 59 | 260 | 2.6 | 0.0 | 0.00 | 0.00 | 0.00 | 82 | 1017.0 |
| 20260904030502 | 59 | 270 | 5.2 | 0.0 | 0.00 | 0.00 | 0.00 | 82 | 1017.0 |
| 20260904023502 | 59 | 250 | 4.3 | 0.0 | 0.00 | 0.00 | 0.00 | 82 | 1017.0 |
| 20260904020502 | 61 | 260 | 5.2 | 0.0 | 0.00 | 0.00 | 0.00 | 77 | 1017.0 |
| 20260904013502 | 61 | 210 | 4.3 | 0.0 | 0.00 | 0.00 | 0.00 | 77 | 1016.0 |
| 20260904010502 | 61 | 220 | 4.3 | 0.0 | 0.00 | 0.00 | 0.00 | 77 | 1017.0 |